Regional Weather Roundup
Issued by NWS Sterling, VA

Home | Current Version | Previous Version | Text Only | Print | Product List | Glossary Off
Versions: 1 2 3 4 5 6 7 8 9 10 11 12 13 14 15 16 17 18 19 20 21 22 23 24 25 26 27 28 29 30 31 32 33 34 35 36 37 38 39 40 41 42 43 44 45 46 47 48 49 50

002
ASUS41 KLWX 120710
RWRLWX

REGIONAL WEATHER ROUNDUP
NATIONAL WEATHER SERVICE BALTIMORE MD/WASHINGTON DC
200 AM EST FRI FEB 12 2016

Note: "FAIR" indicates few or no clouds below 12,000 feet
with no significant weather and/or obstructions to visibility.
 TC=TEMPERATURE CELSIUS

 * =Non NWS site. Station does not report precipitation (e.g. rain,
    snow, etc.), thunder, or fog.

DCZ001-MDZ009-015-VAZ040>042-051-053>054-120800-
WASHINGTON METRO

CITY           SKY/WX    TMP DP  RH WIND       PRES   REMARKS
WASHINGTON NAT MOCLDY    21   3  45 W6        30.35F
DULLES         FAIR      17   4  56 W5        30.32F
ANDREWS AFB    CLEAR     20   2  46 W2        30.31S
FT BELVOIR     FAIR      15   7  70 CALM      30.34S
QUANTICO       FAIR      20   9  62 NW5       30.36F
COLLEGE PARK*  FAIR      21   3  45 CALM      30.33S
LEESBURG*      FAIR      19  12  73 W5        30.32F
MANASSAS*      FAIR      16  12  86 CALM      30.33F
GAITHERSBURG*  PTCLDY    16   1  53 W3        30.33S

$$

MDZ006>007-011-014-120800-
BALTIMORE METRO

CITY           SKY/WX    TMP DP  RH WIND       PRES   REMARKS
BWI AIRPORT    MOCLDY    17   2  51 W6        30.32S
MD SCIENCE CTR   N/A     20   1  43 MISG      30.27F
MARTIN STATE   CLEAR     21   5  49 W5        30.34S
ANNAPOLIS      CLEAR     20   2  45 W6        30.33S
FORT MEADE*    CLEAR     18   3  53 CALM      30.35S

$$

MDZ012-015-019>023-120800-
MARYLAND EASTERN SHORE

CITY           SKY/WX    TMP DP  RH WIND       PRES   REMARKS
OCEAN CITY     CLEAR     20   3  48 NW6       30.33R
SALISBURY      CLEAR     21   3  45 NW8       30.32S WCI  11
BAY BRIDGE AP*   N/A     23   1  39 W10       30.33S WCI  12
CAMBRIDGE*     CLEAR     23   3  42 NW14      30.32F WCI  11
EASTON*        CLEAR     22   4  47 NW13      30.36F WCI   9

$$

MDZ017>025-120800-
SOUTHERN MARYLAND

CITY           SKY/WX    TMP DP  RH WIND       PRES   REMARKS
PATUXENT RIVER PTCLDY    23   4  44 N17       30.34S WCI   9
ST INIGOES     CLEAR     22   4  46 VRB7      30.34R
LEONARDTOWN*   CLEAR     21   3  45 W5        30.34

$$

MDZ003>005-120800-
NORTH CENTRAL MARYLAND

CITY           SKY/WX    TMP DP  RH WIND       PRES   REMARKS
FREDERICK*     PTCLDY    18   3  53 W3        30.34S
HAGERSTOWN APT PTCLDY    15  -2  46 S6        30.27F
WESTMINSTER*   PTCLDY    12   5  73 W8        30.25F WCI   1

$$

MDZ501>502-120800-
WESTERN MARYLAND

CITY           SKY/WX    TMP DP  RH WIND       PRES   REMARKS
OAKLAND*       PTCLDY     5   1  85 W3        30.05F
CUMBERLAND*    PTCLDY    14   7  73 CALM      30.31S

$$

VAZ025>031-120800-
SHENANDOAH VALLEY

CITY           SKY/WX    TMP DP  RH WIND       PRES   REMARKS
WINCHESTER*    FAIR      16   7  67 CALM      30.28F
FRONT ROYAL*   FAIR      19   3  49 CALM      30.27F
LURAY*         FAIR      16   5  62 CALM      30.26F
NEW MARKET*    FAIR      12   6  76 CALM      30.25F
STAUNTON*      FAIR      17   9  73 CALM      30.25F
WAYNESBORO*    FAIR      13   2  61 CALM      30.21F

$$

WVZ021-048>050-054>055-120800-
EASTERN WEST VIRGINIA PANHANDLE

CITY           SKY/WX    TMP DP  RH WIND       PRES   REMARKS
MARTINSBURG    FAIR      14   2  58 W6        30.29F
PETERSBURG*    FAIR      12   6  74 CALM      30.27F

$$

VAZ036>039-050-120800-
CENTRAL FOOTHILLS

CITY           SKY/WX    TMP DP  RH WIND       PRES   REMARKS
CHARLOTTESVILL FAIR      20   1  43 CALM      30.28F
CULPEPER*      FAIR      15   9  75 CALM      30.33F
ORANGE*        FAIR      18  10  73 CALM      30.32F
GORDONSVILLE*  FAIR      19   8  64 CALM      30.30S
WARRENTON*     FAIR      16  13  90 CALM      30.31F

$$

VAZ055>057-120800-
NORTH AND CENTRAL PIEDMONT

CITY           SKY/WX    TMP DP  RH WIND       PRES   REMARKS
FREDERICKSBRG* FAIR      19  11  70 CALM      30.33F
STAFFORD*      FAIR      15   7  72 CALM      30.37F

$$

NCZ024-NYZ072-PAZ021-071-VAZ022-071-120800-
OTHER REGIONAL OBSERVATIONS

CITY           SKY/WX    TMP DP  RH WIND       PRES   REMARKS
NEW YORK CITY  CLEAR     18  -3  39 VRB7G18   30.23S
PHILADELPHIA   PTCLDY    20  -2  38 W10       30.29S WCI   9
PITTSBURGH     CLEAR      7  -1  70 CALM      30.20F
ROANOKE        FAIR      21   6  52 NE5       30.25F
RICHMOND       FAIR      20   6  55 CALM      30.33F
RALEIGH        MOCLDY    27   7  42 NE6       30.30F

$$

ANZ530>537-120800-
MARINE OBSERVATIONS

STATION/POSITION TIME  TEMP    WIND        PRES
                       AIR SEA DIR/SP/G
                 (UTC) (F)     (DEG/KT/KT) (MB)
THOMAS PT LIGHT  0700   22 36  300/ 12/ 14 1027.8R
BALT KEY BRIDGE  0600   21     260/ 11/ 13 1027.2R
COVE POINT       0600   22     320/ 11/ 16 1028.0S
LEWISETTA        0600   24 38  360/ 13/ 17 1027.1R
SOLOMONS ISLAND  0600   24 39  310/  9/ 19   N/A
PINEY POINT      0600           10/ 15/ 17   N/A

$$





USA.gov is the U.S. government's official web portal to all federal, state and local government web resources and services.